Pagina principale
METAR-TAF:

METAR-TAF

Aeroporti :

Middleton Island, Alaska, Stati Uniti

latitudine: 59-26N, longitudine: 146-18W, altezza: 27 m

Osservazione

Il bollettino è stato emesso 23 minuti fa, alle 06:51 UTC
Vento 13 kt da ovest/sud-ovest
Temperature 12°C
Umidità 82%
Pressione 1005 hPa
Visibilità: 16.1 km
Cielo sereno

METAR: PAMD 230651Z AUTO 25013KT 10SM CLR 12/09 A2969 RMK AO2 SLP045 T01170094

Ora: 23:14 (07:14 UTC)


TAF: mancante

Osservazioni e previsioni meteorologiche di più di 4000 aeroporti (messaggi METAR e TAF).

Le stazioni disponibili sono rappresentate dai dischi gialli e rossi sulla carta.

Puntare il mouse per vedere il nome della stazione.

Clicca sopra per visualizzare le osservazioni e previsioni meteorologiche.

Per cambiare la mappa : fare clic sui pulsanti verdi con una croce nera per ingrandire, il pulsante verde con un trattino per diminuire, o sulla freccia verde per le mappe adiacenti.


METAR-TAF: